Weather History for Kiana, AK

Change the Weather History Date:

Monday, December 31, 2012

  Actual Average (PASK) Record (PASK)
Temperature  
Mean Temperature 18 °F -  
Max Temperature 21 °F 0 °F 26 °F (2012)
Min Temperature 14 °F -11 °F -45 °F (1999)
Degree Days  
Heating Degree Days 48    
Moisture  
Dew Point 13 °F    
Average Humidity 86    
Maximum Humidity 100    
Minimum Humidity 74    
Precipitation  
Precipitation 0.00 in - - ()
Sea Level Pressure  
Sea Level Pressure 29.63 in    
Wind  
Wind Speed 7 mph (East)    
Max Wind Speed 12 mph    
Max Gust Speed 20 mph    
Visibility 9 miles    
Events Snow    
Averages and records for this station are not official NWS values.
T = Trace of Precipitation, MM = Missing Value Source: NWS Daily Summary

Daily Weather History Graph

Daily Weather History Graph

Search for Another Location

Airport:

Trip Planner

Search our weather history database for the weather conditions in past years. The results will help you decide how hot, cold, wet, or windy it might be!

Date:

Astronomy

Dec. 31, 2012 Rise Set
Actual Time 12:39 PM AKST 2:51 PM AKST
Civil Twilight 10:45 AM AKST 4:44 PM AKST
Nautical Twilight 9:24 AM AKST 6:05 PM AKST
Astronomical Twilight 8:17 AM AKST 7:13 PM AKST
Moon 9:12 PM AKST (12/31) 11:57 AM AKST (12/31)
Length of Visible Light 5h 59m
Length of Day
2h 12m
Waning Gibbous, 89% of the Moon is Illuminated
Dec 31
Waning Gibbous
Jan 4
Last Quarter
Jan 11
New
Jan 18
First Quarter
Jan 26
Full

Hourly Weather History & Observations

Time (AKST) Temp. Windchill Dew Point Humidity Pressure Visibility Wind Dir Wind Speed Gust Speed Precip Events Conditions
12:01 AM 15.1 °F 4.2 °F 9.0 °F 77% 29.42 in 10.0 mi East 8.1 mph - N/A   Overcast
1:01 AM 14.0 °F 3.9 °F 8.1 °F 77% 29.44 in 10.0 mi East 6.9 mph - N/A   Overcast
2:01 AM 15.1 °F 4.2 °F 8.1 °F 74% 29.46 in 10.0 mi East 8.1 mph - N/A   Overcast
3:01 AM 15.1 °F 6.4 °F 9.0 °F 77% 29.48 in 10.0 mi East 5.8 mph - N/A   Overcast
4:01 AM 15.1 °F 2.5 °F 8.1 °F 74% 29.50 in 10.0 mi East 10.4 mph - N/A   Mostly Cloudy
5:01 AM 15.1 °F 3.3 °F 9.0 °F 77% 29.52 in 10.0 mi East 9.2 mph - N/A   Overcast
6:01 AM 15.1 °F 2.5 °F 10.0 °F 80% 29.55 in 10.0 mi East 10.4 mph 18.4 mph N/A   Overcast
7:01 AM 14.0 °F - 9.0 °F 80% 29.57 in 10.0 mi Calm Calm - N/A   Overcast
8:01 AM 14.0 °F 3.9 °F 10.0 °F 84% 29.59 in 9.0 mi ESE 6.9 mph - 0.00 in Snow Light Snow
8:13 AM 14.0 °F 3.9 °F 10.4 °F 86% 29.46 in 9.0 mi East 6.9 mph - 0.00 in Snow Light Snow
8:54 AM 14.0 °F 2.0 °F 10.4 °F 86% 29.47 in 9.0 mi East 9.2 mph - 0.00 in Snow Light Snow
9:01 AM 14.0 °F 1.2 °F 10.9 °F 88% 29.60 in 7.0 mi East 10.4 mph - 0.00 in Snow Light Snow
9:10 AM 14.0 °F 2.0 °F 10.4 °F 86% 29.48 in 8.0 mi East 9.2 mph - 0.00 in Snow Light Snow
10:01 AM 14.0 °F 5.1 °F 10.0 °F 84% 29.63 in 10.0 mi ESE 5.8 mph - 0.00 in   Overcast
10:41 AM 15.8 °F - 12.2 °F 86% 29.52 in 9.0 mi Calm Calm - 0.00 in Snow Light Snow
10:52 AM 15.8 °F 6.1 °F 12.2 °F 86% 29.52 in 9.0 mi Variable 6.9 mph - 0.00 in Snow Light Snow
11:01 AM 15.1 °F 6.4 °F 12.0 °F 88% 29.66 in 9.0 mi East 5.8 mph - 0.00 in Snow Light Snow
12:01 PM 16.0 °F 4.4 °F 12.9 °F 88% 29.68 in 9.0 mi East 9.2 mph - 0.00 in Snow Light Snow
1:01 PM 15.1 °F 4.2 °F 12.0 °F 88% 29.71 in 10.0 mi East 8.1 mph - 0.00 in Snow Light Snow
2:01 PM 15.1 °F 9.4 °F 12.0 °F 88% 29.72 in 10.0 mi Variable 3.5 mph - 0.00 in Snow Light Snow
3:01 PM 16.0 °F 5.3 °F 12.9 °F 88% 29.73 in 9.0 mi East 8.1 mph - 0.00 in Snow Light Snow
4:01 PM 17.1 °F 8.7 °F 14.0 °F 88% 29.75 in 9.0 mi ESE 5.8 mph - 0.00 in Snow Light Snow
5:01 PM 18.0 °F 9.8 °F 15.1 °F 88% 29.76 in 9.0 mi Variable 5.8 mph - 0.00 in Snow Light Snow
6:01 PM 19.0 °F 10.0 °F 16.0 °F 88% 29.79 in 9.0 mi East 6.9 mph - 0.00 in   Overcast
7:01 PM 19.0 °F 12.3 °F 16.0 °F 88% 29.81 in 9.0 mi East 4.6 mph - 0.00 in Snow Light Snow
8:01 PM 19.9 °F 11.1 °F 18.0 °F 92% 29.81 in 8.0 mi ESE 6.9 mph - 0.00 in Snow Light Snow
9:01 PM 19.9 °F 12.1 °F 17.1 °F 89% 29.83 in 9.0 mi East 5.8 mph - 0.00 in Snow Light Snow
10:01 PM 21.0 °F 16.2 °F 18.0 °F 88% 29.83 in 10.0 mi Variable 3.5 mph - 0.00 in   Overcast
10:34 PM 19.4 °F 10.4 °F 19.4 °F 100% 29.70 in 10.0 mi NE 6.9 mph - N/A   Overcast
10:42 PM 21.2 °F 16.4 °F 19.4 °F 93% 29.70 in 10.0 mi East 3.5 mph - N/A   Overcast
11:01 PM 21.2 °F 9.5 °F 21.2 °F 100% 29.71 in 10.0 mi East 11.5 mph 19.6 mph N/A   Overcast
11:21 PM 21.2 °F 14.9 °F 19.4 °F 93% 29.71 in 10.0 mi East 4.6 mph - N/A   Overcast
11:33 PM 21.2 °F 16.4 °F 19.4 °F 93% 29.72 in 10.0 mi Variable 3.5 mph - N/A   Overcast
11:52 PM 21.2 °F 13.6 °F 19.4 °F 93% 29.72 in 9.0 mi ENE 5.8 mph - 0.00 in Snow Light Snow